Lexington Weather

Lexington, Massachusetts, USA

44°F
9/20/2020 11:04pm 
  • Lexington Conditions: Clear
  • Temperature: 43.9°F / 6.6°CColder 0.5°F than last hour.
  • Dew Point: 38.1°FIncreased 0.5°Fsince last hour.
  • Relative Humidity: 80%Increased 3.0% since last hour.
  • Wind: Calm, 10-min avg: Calm, gust: None
  • Barometer: 30.53 in Steady
  • Visibility: 10 miles
  • Rain Today: 0.00 in
  •   
Southeast Middlesex County - Special Weather Statement - Special Weather Statement
 - SEE ALL NEARBY ALERTS -

Regional Weather Roundup
for Boston / Norton, MA

        
000
ASUS41 KBOX 160304
RWRBOX

REGIONAL WEATHER ROUNDUP
NATIONAL WEATHER SERVICE BOSTON/NORTON MA
1100 PM EDT TUE SEP 15 2020

NOTE:  "FAIR" INDICATES FEW OR NO CLOUDS BELOW 12,000 FEET WITH NO 
SIGNIFICANT WEATHER AND/OR OBSTRUCTIONS TO VISIBILITY.

MAZALL-160400-
EASTERN MASSACHUSETTS
  
CITY           SKY/WX    TMP DP  RH WIND       PRES   REMARKS
BOSTON         PTCLDY    55  46  71 S10       30.29S                  
BEVERLY        PTCLDY    55  47  74 CALM      30.27S                  
LAWRENCE       PTCLDY    52  47  83 CALM      30.29S                  
BEDFORD        PTCLDY    49  44  83 CALM      30.27S                  
BLUE HILL        N/A     52  47  83 SW10      30.27S                  
NORWOOD        PTCLDY    46  43  89 CALM      30.29R                  
MARSHFIELD     CLEAR     48  46  93 SW3       30.29R                  
PLYMOUTH       CLEAR     48  45  89 CALM      30.29S                  
TAUNTON        CLEAR     47  44  90 CALM      30.29S                  
NEW BEDFORD    CLEAR     48  45  89 CALM      30.29F                  
$$

MAZALL-160400-
CAPE COD AND THE ISLANDS
  
CITY           SKY/WX    TMP DP  RH WIND       PRES   REMARKS
FALMOUTH       NOT AVBL                                               
HYANNIS        CLEAR     45  43  93 CALM      30.28S                  
CHATHAM        CLEAR     49  45  86 CALM      30.31R                  
PROVINCETOWN   CLEAR     51  47  86 S5        30.30S                  
NANTUCKET      CLEAR     50  44  80 CALM      30.31R                  
MARTHAS VNYRD  CLEAR     41  38  89 CALM      30.30S                  
$$
 
MAZALL-160400-
CENTRAL AND WESTERN MASSACHUSETTS
  
CITY           SKY/WX    TMP DP  RH WIND       PRES   REMARKS
WORCESTER      PTCLDY    50  39  66 SW7       30.28S                  
FITCHBURG      PTCLDY    49  42  77 CALM      30.27F                  
ORANGE         CLEAR     45  44  97 SW3       30.28F                  
SPRINGFIELD    MOCLDY    45  43  91 CALM      30.27S                  
WESTFIELD      CLEAR     48  46  93 CALM      30.28S                  
NORTH ADAMS    CLEAR     45  43  93 CALM      30.27F                  
PITTSFIELD     CLEAR     46  44  93 CALM      30.27S                  
$$
 
RIZALL-160400-
RHODE ISLAND
  
CITY           SKY/WX    TMP DP  RH WIND       PRES   REMARKS
PROVIDENCE     PTCLDY    55  47  74 CALM      30.30S                  
NEWPORT        CLEAR     57  50  77 CALM      30.29F                  
BLOCK ISLAND   CLEAR     54  47  77 SW6       30.31S                  
SMITHFIELD     CLEAR     51  48  89 SW3       30.30R                  
WESTERLY       CLEAR     50  46  86 CALM      30.30F                  
$$
 
CTZALL-160400-
CONNECTICUT
  
CITY           SKY/WX    TMP DP  RH WIND       PRES   REMARKS
BRADLEY INTL   MOCLDY    52  44  74 CALM      30.28S                  
HARTFORD       PTCLDY    54  46  74 S5        30.28F                  
BRIDGEPORT     CLEAR     62  50  64 S10       30.29F                  
DANBURY        CLEAR     49  46  90 CALM      30.30F                  
GROTON         CLEAR     52  49  89 W3        30.29F                  
NEW HAVEN      CLEAR     63  52  67 S8        30.30S                  
CHESTER        FAIR      54  50  87 VRB5      30.30F                  
MERIDEN        CLEAR     48  44  86 CALM      30.29F                  
WILLIMANTIC    CLEAR     47  44  90 NE5       30.30S                  
OXFORD         CLEAR     51  45  79 CALM      30.30F                  
$$

MEZ002-015-021-024-NHZ003-005-008-011-012-014-VTZ005-008-160400-
NORTHERN NEW ENGLAND
  
CITY           SKY/WX    TMP DP  RH WIND       PRES   REMARKS
PORTLAND ME    PTCLDY    55  48  77 SW6       30.26S                  
BANGOR ME      CLOUDY    53  43  68 S6        30.24S                  
CONCORD NH     PTCLDY    43  39  86 CALM      30.26S                  
MANCHESTER NH  PTCLDY    54  43  66 SE3       30.25S                  
NASHUA NH      PTCLDY    51  47  86 CALM      30.27F                  
PORTSMOUTH NH  MOCLDY    51  45  80 SW6       30.25S                  
JAFFREY NH     PTCLDY    50  42  74 W3        30.27F                  
KEENE NH       CLEAR     44  43  96 CALM      30.27                   
BURLINGTON VT  MOCLDY    56  40  55 S8        30.19F                  
MT. WASHINGTON CLOUDY    41 -18   7 W36         N/A  WCI  29          
$$

NYZ052-076-160400-
EASTERN NEW YORK
  
CITY           SKY/WX    TMP DP  RH WIND       PRES   REMARKS
ALBANY         PTCLDY    46  44  93 S3        30.26F                  
NEW YORK CITY  MOCLDY    63  47  55 S7        30.29F                  
$$
 
ANZALL-160400-
MARINE OBSERVATIONS
  
STATION/POSITION TIME  TEMP    WIND        PRES    VSBY  WAVE
                       AIR SEA DIR/SP/G                  HT/PER
                 (UTC) (F)     (DEG/KT/KT) (MB)    (MI)  (FT/S)
BOSTON BUOY      0250   60 63  190/ 14/ 17 1024.2R         3/11
BUZZARDS BAY     0200          220/  7/  8 1027.0F
NANTUCKET SOUND  0240      70  210/  6/  8   N/A
MASS BAY-STELLWA 0204   60     220/ 14/ 17 1022.9S  1 7/8  4/11
ISLE OF SHOALS   0200   60     210/ 16/ 17 1024.4F
S OF BLOCK IS    0226      70                N/A           3/ 9
$$

......................KEY.........................
  SKY/WX - SKY CONDITION/PRESENT WEATHER
  TMP    - TEMPERATURE IN FAHRENHEIT
  DWPT   - DEWPOINT IN FAHRENHEIT
  RH     - RELATIVE HUMIDITY IN PERCENT
  WIND   - DIRECTION AND SPEED IN MPH
  PRES   - MEAN SEA LEVEL PRESSURE IN INCHES OF HG
  WCI    - WIND CHILL INDEX
  VSB    - VISIBILITY IN MILES
  HX     - HEAT INDEX
  TC     - TEMPERATURE IN CELSIUS
  VRB    - VARIABLE WIND DIRECTION
  N/A    - NOT AVAILABLE
  
      

Other recent Regional Weather Roundups

Sun Sep 20, 10:04pm

Sun Sep 20, 9:04pm

Sun Sep 20, 8:05pm

Sun Sep 20, 7:04pm

Sun Sep 20, 6:04pm

Sun Sep 20, 5:04pm

Sun Sep 20, 4:04pm

Sun Sep 20, 3:05pm

Sun Sep 20, 2:05pm

Sun Sep 20, 1:04pm

Sun Sep 20, 12:04pm

Sun Sep 20, 11:04am

Sun Sep 20, 10:04am

Sun Sep 20, 9:04am

Sun Sep 20, 8:04am

Sun Sep 20, 7:04am

Sun Sep 20, 6:04am

Sun Sep 20, 5:04am

Sun Sep 20, 4:04am

Sun Sep 20, 3:05am

Sun Sep 20, 2:04am

Sun Sep 20, 1:04am

Sun Sep 20, 12:04am

Sat Sep 19, 11:04pm

Sat Sep 19, 10:04pm

Sat Sep 19, 9:04pm

Sat Sep 19, 8:05pm

Sat Sep 19, 7:04pm

Sat Sep 19, 6:05pm

Sat Sep 19, 5:04pm

Sat Sep 19, 4:04pm

Sat Sep 19, 3:04pm

Sat Sep 19, 2:04pm

Sat Sep 19, 1:05pm

Sat Sep 19, 12:04pm

Sat Sep 19, 11:04am

Sat Sep 19, 10:04am

Sat Sep 19, 9:05am

Sat Sep 19, 8:04am

Sat Sep 19, 7:04am

Sat Sep 19, 6:04am

Sat Sep 19, 5:04am

Sat Sep 19, 4:04am

Sat Sep 19, 3:04am

Sat Sep 19, 2:04am

Sat Sep 19, 1:04am

Sat Sep 19, 12:04am

Fri Sep 18, 11:05pm

Fri Sep 18, 10:04pm

Fri Sep 18, 9:04pm

Fri Sep 18, 8:04pm

Fri Sep 18, 7:04pm

Fri Sep 18, 6:04pm

Fri Sep 18, 5:05pm

Fri Sep 18, 4:04pm

Fri Sep 18, 3:05pm

Fri Sep 18, 2:04pm

Fri Sep 18, 1:04pm

Fri Sep 18, 12:04pm

Fri Sep 18, 11:05am

Fri Sep 18, 10:05am

Fri Sep 18, 9:04am

Fri Sep 18, 8:04am

Fri Sep 18, 7:04am

Fri Sep 18, 6:04am

Fri Sep 18, 5:04am

Fri Sep 18, 4:04am

Fri Sep 18, 3:04am

Fri Sep 18, 2:04am

Fri Sep 18, 1:04am

Fri Sep 18, 12:04am

Thu Sep 17, 11:05pm

Thu Sep 17, 10:04pm

Thu Sep 17, 9:04pm

Thu Sep 17, 8:05pm

Thu Sep 17, 7:04pm

Thu Sep 17, 6:04pm

Thu Sep 17, 5:04pm

Thu Sep 17, 4:04pm

Thu Sep 17, 3:05pm

Thu Sep 17, 2:04pm

Thu Sep 17, 1:04pm

Thu Sep 17, 12:04pm

Thu Sep 17, 11:04am

Thu Sep 17, 10:04am

Thu Sep 17, 9:04am

Thu Sep 17, 8:04am

Thu Sep 17, 7:04am

Thu Sep 17, 6:04am

Thu Sep 17, 5:04am

Thu Sep 17, 4:04am

Thu Sep 17, 3:04am

Thu Sep 17, 2:05am

Thu Sep 17, 1:05am

Thu Sep 17, 12:04am

Wed Sep 16, 11:04pm

Wed Sep 16, 10:04pm

Wed Sep 16, 9:04pm

Wed Sep 16, 8:05pm

Wed Sep 16, 7:04pm

Wed Sep 16, 6:04pm

Wed Sep 16, 5:04pm

Wed Sep 16, 4:04pm

Wed Sep 16, 3:04pm

Wed Sep 16, 2:04pm

Wed Sep 16, 1:04pm

Wed Sep 16, 12:04pm

Wed Sep 16, 11:04am

Wed Sep 16, 10:04am

Wed Sep 16, 9:04am

Wed Sep 16, 8:04am

Wed Sep 16, 7:04am

Wed Sep 16, 6:04am

Wed Sep 16, 5:04am

Wed Sep 16, 4:04am

Wed Sep 16, 3:04am

Wed Sep 16, 2:04am

Wed Sep 16, 1:04am

Wed Sep 16, 12:05am

Tue Sep 15, 10:04pm

Tue Sep 15, 9:04pm

Tue Sep 15, 8:04pm

Tue Sep 15, 7:04pm

Tue Sep 15, 6:04pm

Tue Sep 15, 5:04pm

Tue Sep 15, 4:05pm

Tue Sep 15, 3:04pm

Tue Sep 15, 2:04pm

Tue Sep 15, 1:04pm

Tue Sep 15, 12:04pm

Tue Sep 15, 11:04am

Tue Sep 15, 10:04am

Tue Sep 15, 9:04am

Tue Sep 15, 8:04am

Tue Sep 15, 7:04am

Tue Sep 15, 6:04am

Tue Sep 15, 5:04am

Tue Sep 15, 4:04am

Tue Sep 15, 3:04am

Tue Sep 15, 2:04am

Tue Sep 15, 1:04am

Tue Sep 15, 12:05am

Mon Sep 14, 11:04pm

Mon Sep 14, 10:04pm

Mon Sep 14, 9:04pm

Mon Sep 14, 8:04pm

Mon Sep 14, 7:04pm

Mon Sep 14, 6:04pm

Mon Sep 14, 5:04pm

Mon Sep 14, 4:05pm

Mon Sep 14, 3:04pm

Mon Sep 14, 2:05pm

Mon Sep 14, 1:04pm

Mon Sep 14, 12:04pm

Mon Sep 14, 11:04am

Mon Sep 14, 10:05am

Mon Sep 14, 9:04am

Mon Sep 14, 8:04am

Mon Sep 14, 7:04am

Mon Sep 14, 6:04am

Mon Sep 14, 5:04am

Mon Sep 14, 4:04am

Mon Sep 14, 3:04am

Mon Sep 14, 2:04am

Mon Sep 14, 1:04am

Mon Sep 14, 12:04am

Sun Sep 13, 11:05pm

Meta data:

ID: aba9cab4-f494-4e5f-997b-54ef79ddc484
Link: https://api.weather.gov/products/aba9cab4-f494-4e5f-997b-54ef79ddc484